Probability
0 0 0 0 0 0 0 0 0 0 0 0 0 0 0 0 0 0 0 0 0 0 0 0 0 0 0 0 0 0 0 0 0 0 0 0 0 0 0 0 0 0 0 1 0 0 1 2 3
0 0 0 0 0 0 0 0 0 0 0 0 0 0 0 0 0 0 0 0 0 0 0 0 0 0 0 0 0 0 0 0 0 0 0 0 0 0 0 0 0 0 0 1 1 0 1 2 3
0 0 0 0 0 0 0 0 0 0 0 0 0 0 0 0 0 0 0 0 0 0 0 0 0 0 0 0 0 1 0 0 0 0 0 0 0 0 0 0 0 0 0 1 1 1 1 2 3
0 0 0 0 0 0 0 0 0 0 0 0 0 0 0 0 0 0 0 0 0 0 0 0 0 0 0 0 0 0 0 0 0 0 0 0 0 0 0 0 0 0 0 0 1 1 1 2 3
0 0 0 0 0 0 0 0 0 0 0 0 0 0 0 0 0 0 0 0 0 0 0 0 0 0 0 0 0 0 0 0 0 0 0 0 0 0 0 0 0 0 0 0 0 1 1 2 3
0 0 0 0 0 0 0 0 0 0 0 0 0 0 0 0 0 0 0 0 0 0 0 0 0 0 0 0 0 0 0 0 0 0 0 0 0 0 0 0 0 0 0 0 0 0 1 1 2
0 0 0 0 0 0 0 0 0 0 0 0 0 0 0 0 0 0 0 0 0 0 0 0 0 0 0 0 0 0 0 0 0 0 0 0 0 0 0 0 0 0 0 0 0 0 0 0 1
0 0 0 0 0 0 0 0 0 0 0 0 0 0 0 0 0 0 0 0 0 0 0 0 0 0 0 0 0 0 0 0 0 0 0 0 0 0 0 0 0 0 0 0 0 0 0 0 0
0 0 0 0 0 0 0 0 0 0 0 0 0 0 0 0 0 0 0 0 0 0 0 0 0 0 0 0 0 0 0 0 0 0 0 0 1 1 0 0 0 0 0 0 0 0 0 0 0
0 0 0 0 0 0 0 0 0 0 0 0 0 0 0 0 0 0 0 0 0 0 0 0 0 0 0 0 0 0 0 0 0 0 0 1 2 2 1 0 0 0 0 0 0 0 0 0 0
0 0 0 0 0 0 0 0 0 0 0 0 0 0 0 0 0 0 0 0 0 0 0 0 0 0 0 0 0 0 0 0 0 0 0 1 2 3 2 1 0 0 0 0 0 0 0 0 0
0 0 0 0 0 0 0 0 0 0 0 0 0 0 0 0 0 0 0 0 0 0 0 0 0 1 0 0 0 0 0 0 0 0 0 1 2 3 2 1 0 0 0 0 0 1 1 1 1
0 0 0 0 0 0 0 0 0 0 0 0 0 0 0 0 0 0 0 0 0 0 0 0 0 0 0 0 0 0 0 0 0 0 0 0 1 2 2 1 0 0 0 0 0 1 2 3 3
0 0 0 0 0 0 0 0 0 0 0 0 0 0 0 0 0 0 0 0 0 0 0 0 0 0 0 0 0 0 0 0 0 0 0 0 0 1 1 0 0 0 0 0 0 0 2 4 4
0 0 0 0 0 0 0 0 0 0 0 0 0 0 0 0 0 0 0 0 0 0 0 0 0 0 0 0 0 0 0 0 0 0 0 0 0 0 0 0 0 0 0 0 0 0 2 3 2
0 0 0 0 0 0 0 0 0 0 0 0 0 0 0 0 0 0 0 0 0 0 0 0 0 0 0 0 0 0 0 0 0 0 0 0 0 0 0 0 0 0 0 0 0 0 1 1 1
0 0 0 0 0 0 0 0 0 0 0 0 0 0 0 0 0 0 0 0 0 0 0 0 0 0 0 0 0 0 0 0 0 0 0 0 0 0 0 0 0 0 0 0 0 0 0 0 0
0 0 0 0 0 0 0 0 0 0 0 0 0 0 0 0 0 0 0 0 0 0 0 0 0 0 1 1 0 0 0 0 0 0 0 0 0 0 0 0 0 0 0 0 0 0 0 0 0
0 0 0 0 0 0 0 0 0 0 0 0 0 0 0 0 0 0 0 0 0 0 0 0 0 1 2 3 1 0 0 0 0 0 0 0 0 0 0 0 0 0 0 0 0 0 0 0 0
0 0 0 0 0 0 0 0 0 0 0 0 0 0 0 0 0 0 0 0 0 0 0 0 1 2 3 3 2 1 0 0 0 0 0 0 0 0 0 0 0 0 0 0 0 0 0 0 0
0 0 0 0 0 0 0 0 0 0 0 0 0 0 0 0 0 0 0 0 0 0 0 0 1 2 3 3 3 2 1 0 0 0 0 0 0 0 0 0 0 0 0 0 0 0 0 0 0
0 0 0 0 0 0 0 0 0 0 0 0 0 0 0 0 0 0 0 0 0 0 0 0 1 2 3 3 3 3 2 1 1 0 0 0 0 0 0 0 0 0 0 0 0 0 0 0 0
0 0 0 0 0 0 0 0 0 0 0 0 0 0 0 0 0 0 0 0 0 0 0 0 0 1 1 3 3 3 3 3 2 1 0 0 0 0 0 0 0 0 0 0 0 0 0 0 0
0 0 0 0 0 0 0 0 0 0 0 0 0 0 0 0 0 0 0 0 0 0 0 0 0 0 1 2 3 3 3 3 3 2 1 0 0 0 0 0 0 0 0 0 0 0 0 0 0
0 0 0 0 0 0 0 0 0 0 0 0 0 0 0 0 0 0 0 0 0 0 0 0 0 0 0 1 2 3 3 3 3 3 2 1 0 0 0 0 0 0 0 0 0 0 0 0 0
0 0 0 0 0 0 0 0 0 0 0 0 0 0 0 0 0 0 0 0 0 0 0 0 0 0 0 0 1 1 2 2 3 3 3 1 0 0 0 0 0 0 0 0 0 0 0 0 0
0 0 0 0 0 0 0 0 0 0 0 0 0 0 0 0 0 0 0 0 0 0 0 0 0 0 0 0 0 0 1 1 1 3 3 2 1 0 0 0 0 0 0 0 0 0 0 0 0
0 0 0 0 0 0 0 0 0 0 0 0 0 0 0 0 0 0 0 0 0 0 0 0 0 0 0 0 0 0 0 0 1 2 3 2 1 0 0 0 0 0 0 0 0 0 0 0 0
0 0 0 0 0 0 0 0 0 0 0 0 0 0 0 0 0 0 0 0 0 0 0 0 0 0 0 0 0 0 0 0 0 1 2 2 1 0 0 0 0 0 0 0 0 0 0 0 0
0 0 0 0 0 0 0 0 0 0 0 0 0 0 0 0 0 0 0 0 0 0 0 0 0 0 0 0 0 0 0 0 0 0 1 1 0 0 0 0 0 0 0 0 0 0 0 0 0
Wind_Speed
6 3 2 3 4 4 6 4 3 4 3 2 1 1 1 1 1 3 4 3 4 6 5 5 5 7 8 8 8 9 8 8 9 9 9 8 9 9 9 9 9 9 10 10 10 10 11 11 11
4 2 3 3 6 7 6 4 5 3 3 3 2 1 1 1 3 4 3 3 5 6 5 5 6 6 8 8 8 8 8 9 9 9 9 8 8 8 9 9 9 9 10 10 10 10 10 10 10
2 2 3 4 6 7 4 4 4 3 3 2 2 0 1 2 3 2 2 4 5 6 5 6 6 7 8 8 8 8 9 9 9 9 9 8 8 8 8 8 9 9 9 9 10 10 10 10 10
2 2 2 5 8 5 3 2 3 5 3 1 2 2 2 3 2 2 3 5 6 6 5 6 6 7 7 8 8 9 9 9 9 9 9 8 8 8 8 8 8 9 9 9 9 10 9 9 9
1 2 5 6 7 4 2 2 4 4 3 2 2 1 2 3 3 4 5 5 6 6 5 6 7 7 7 7 8 8 8 8 9 9 9 8 8 8 8 8 8 9 9 9 9 10 9 9 9
2 3 6 8 8 4 2 3 4 3 2 2 2 1 2 4 3 3 5 5 5 5 5 5 6 6 6 6 7 7 8 8 9 9 9 8 8 8 8 8 8 8 8 9 9 9 9 9 9
3 4 6 7 7 5 3 3 4 3 3 2 1 2 2 3 2 4 5 5 4 4 4 4 5 5 6 6 7 7 7 8 8 8 9 8 8 8 8 8 8 8 8 8 8 8 8 8 8
1 3 5 6 7 5 3 3 1 2 2 1 1 2 1 2 2 4 4 4 4 3 3 3 4 4 4 5 6 7 7 7 7 8 8 8 7 7 8 8 8 8 7 8 7 7 7 8 7
2 5 6 6 5 3 3 3 1 1 1 1 1 2 3 3 4 5 4 4 3 2 2 2 3 3 3 4 4 5 5 6 5 5 6 5 4 4 5 7 8 8 8 7 7 6 6 6 6
3 5 5 2 2 2 3 3 2 2 3 2 2 1 2 4 5 6 5 5 5 4 3 2 2 2 3 3 3 3 3 3 2 2 3 2 3 3 4 6 7 7 7 6 6 5 4 2 2
2 3 3 2 1 2 2 2 2 4 4 5 5 4 4 4 5 5 6 6 5 4 3 3 2 2 2 2 2 2 1 2 2 2 2 2 2 2 2 2 3 3 3 3 3 2 2 2 2
2 1 2 1 1 2 2 2 3 5 5 2 3 3 5 6 6 7 6 6 5 5 4 3 3 3 2 2 2 2 2 1 1 1 1 2 1 1 2 1 1 1 1 1 1 1 2 2 2
3 2 0 1 2 1 1 4 4 6 5 3 2 3 5 6 6 6 5 4 5 5 5 4 4 3 3 2 2 2 2 2 2 1 1 1 1 1 1 1 1 1 1 1 1 1 1 1 2
2 3 1 1 0 0 1 4 4 7 4 4 5 6 6 6 6 6 6 5 5 5 5 5 5 4 4 3 2 2 2 2 2 1 1 1 1 1 1 1 1 1 0 1 0 1 1 1 1
3 2 1 1 1 1 2 6 7 6 3 5 5 5 6 6 6 7 7 6 6 5 5 6 5 5 4 4 3 2 2 2 1 1 2 2 1 2 2 2 1 1 0 0 0 0 0 0 1
2 3 3 1 1 1 3 8 3 1 3 6 6 6 6 6 6 6 6 6 6 5 5 6 5 5 5 4 3 2 2 2 1 1 2 2 2 2 2 2 1 1 1 0 0 0 0 1 1
3 4 4 2 1 1 4 7 3 1 3 6 7 7 7 6 7 6 6 6 6 6 5 5 6 6 6 5 4 3 2 2 1 1 1 2 2 3 2 2 2 1 1 1 0 0 1 1 1
5 4 3 3 0 2 5 9 8 5 5 7 7 7 7 7 8 6 5 5 5 5 5 5 4 6 6 4 3 3 2 2 1 1 1 2 2 2 2 2 2 2 1 1 1 1 1 1 1
2 4 4 3 0 2 6 10 11 9 7 8 8 8 8 8 6 4 4 5 5 5 5 5 5 5 5 4 4 3 3 2 2 1 1 1 2 2 2 2 2 2 2 2 1 1 2 1 1
4 4 4 2 0 3 5 10 11 9 8 8 8 8 8 7 5 4 3 4 5 5 5 5 6 6 6 5 4 3 3 2 2 1 1 1 2 2 2 3 2 2 2 2 2 2 1 1 0
5 6 5 3 2 2 5 7 6 4 5 5 6 7 7 7 6 5 4 5 5 5 6 5 6 6 6 6 4 3 3 2 2 2 2 2 2 2 2 3 3 3 2 2 3 3 3 1 1
5 3 4 3 4 2 2 6 5 4 5 5 6 6 6 5 5 5 4 5 5 5 5 5 5 5 5 6 6 6 4 4 3 2 2 2 2 2 2 3 3 3 2 2 3 3 2 2 1
2 1 2 3 3 4 3 6 7 2 6 6 6 5 5 5 4 4 4 4 4 4 4 5 5 5 5 5 6 6 5 3 2 2 2 2 2 2 2 2 2 2 2 3 3 3 3 2 2
4 3 2 1 2 5 4 6 7 4 6 5 3 4 4 3 3 3 3 3 3 3 4 4 5 5 5 5 5 6 6 5 4 3 3 2 1 1 2 2 2 2 2 2 2 2 3 2 3
3 3 2 2 3 5 2 6 9 5 5 5 4 3 2 2 2 2 3 3 3 3 4 4 5 4 5 5 5 5 5 5 5 4 3 3 2 1 2 2 2 2 2 2 2 2 2 3 3
5 4 4 4 4 2 3 8 6 3 4 5 5 4 2 2 2 2 3 3 3 3 4 5 5 5 5 5 5 5 4 3 3 4 3 3 2 2 2 3 3 2 2 2 2 2 2 2 3
5 4 1 1 0 4 5 6 8 4 5 5 4 4 3 2 2 2 2 3 3 3 4 5 5 5 5 5 5 4 4 4 3 3 3 2 2 1 2 3 3 3 3 3 3 2 2 2 3
1 3 4 4 4 5 5 5 5 4 5 4 4 4 3 2 2 2 2 2 2 3 4 4 5 5 5 5 4 3 4 4 3 3 3 3 2 2 2 2 2 2 3 3 3 2 3 3 3
4 4 4 3 3 4 5 4 3 5 4 5 4 4 3 2 2 2 2 2 2 3 3 4 4 4 4 4 4 4 4 4 3 3 3 3 3 2 3 3 3 3 3 3 3 3 3 3 3
4 5 6 5 4 4 4 6 1 3 3 4 4 3 3 3 2 2 2 3 3 3 4 4 4 5 4 4 4 4 4 4 4 4 3 3 3 3 3 3 3 3 3 3 3 4 4 4 4
Wind_Direction
322 318 251 223 218 223 224 196 182 156 150 111 107 186 174 15 338 60 81 118 127 134 136 135 119 112 105 103 101 98 95 93 90 87 85 82 80 77 75 74 73 73 73 74 73 71 71 71 71
326 293 218 220 231 223 211 196 191 161 105 122 120 166 167 106 41 79 120 136 141 136 135 129 108 110 107 104 101 99 97 94 92 89 88 85 81 78 76 76 73 74 73 72 73 73 72 71 72
297 284 224 208 226 234 205 171 173 124 127 168 145 93 349 65 87 103 103 148 144 135 132 121 107 104 107 106 102 98 96 94 92 90 88 86 83 79 77 77 75 77 78 76 74 74 72 70 72
243 189 208 223 220 227 233 147 153 152 151 160 170 147 119 54 52 89 128 146 141 133 130 121 108 100 102 103 100 97 95 93 90 87 85 84 84 81 78 77 76 75 78 79 76 73 72 70 71
232 209 205 216 223 209 196 186 179 184 169 154 177 169 132 92 75 115 139 145 143 133 124 118 102 100 98 104 100 96 96 92 89 86 81 79 83 84 81 79 78 77 76 77 78 75 72 71 73
183 211 218 218 214 204 195 190 184 199 178 159 182 188 112 98 109 127 141 143 140 131 119 114 96 95 95 100 100 96 95 92 89 85 81 77 76 81 80 78 80 79 78 75 76 76 72 71 71
206 205 225 221 216 213 200 183 205 205 201 187 210 186 137 129 124 137 143 139 132 127 123 119 116 108 96 91 93 92 90 90 89 85 79 73 70 71 69 67 71 75 76 75 73 76 72 69 70
238 192 202 212 217 218 162 168 195 231 216 78 215 213 151 115 146 143 144 142 138 134 132 127 121 118 118 110 95 91 90 90 90 84 80 74 68 69 66 65 64 71 74 73 71 73 74 69 67
221 213 213 208 217 207 165 184 157 355 157 160 241 331 42 105 138 143 151 154 157 150 143 138 136 132 126 124 110 106 97 91 97 96 89 92 92 86 78 67 61 63 66 69 68 65 71 72 71
210 217 218 200 217 200 178 213 196 190 212 231 231 249 108 137 156 170 178 185 190 188 179 163 170 156 150 141 134 130 122 114 114 115 116 105 95 80 74 69 62 61 60 65 63 57 63 67 77
188 217 193 175 157 164 176 207 219 217 241 244 244 224 176 173 185 199 204 204 201 195 189 188 186 173 168 157 145 139 131 126 125 117 118 109 99 96 88 82 76 72 65 64 61 58 47 52 52
157 171 186 168 132 162 197 200 227 235 253 295 265 202 182 192 201 209 213 214 203 197 199 192 185 180 178 169 157 155 155 151 144 131 135 131 127 121 104 88 74 68 61 60 48 50 54 57 54
179 160 111 104 105 122 190 229 255 253 259 262 232 200 205 209 215 221 223 218 208 203 202 194 190 183 180 176 169 170 168 167 151 153 153 155 156 144 122 106 93 72 58 70 63 45 54 61 60
133 136 134 25 136 124 243 265 255 258 256 243 230 229 225 222 221 221 221 220 218 213 204 196 193 189 181 185 179 177 173 160 165 176 164 174 176 157 152 139 118 92 69 36 45 37 26 59 58
138 133 161 235 241 221 265 267 242 259 244 245 242 236 232 231 226 226 225 224 220 216 210 198 195 189 187 189 183 177 175 170 173 180 178 182 177 170 164 153 140 110 104 119 100 48 24 77 68
165 192 225 186 241 230 238 263 270 260 235 252 252 245 240 240 233 234 231 227 220 214 210 204 189 189 188 190 180 176 182 172 173 189 188 183 175 175 169 158 150 144 156 166 269 317 359 47 33
196 223 240 230 144 215 232 267 289 269 249 263 263 257 249 247 241 234 230 229 222 215 208 201 194 189 186 185 177 172 177 165 170 193 202 186 179 181 180 165 159 172 168 147 125 39 25 44 27
204 212 235 249 143 217 241 262 276 268 261 267 270 264 256 252 248 237 223 224 220 213 209 198 193 191 180 177 170 167 168 166 180 199 205 189 184 187 180 169 168 171 159 141 128 99 75 49 31
199 207 242 261 318 260 258 272 281 277 265 264 262 260 256 254 252 237 217 211 213 209 204 199 191 188 180 176 178 180 186 183 186 195 204 196 176 183 186 170 163 172 170 167 162 140 112 87 36
196 222 255 269 305 265 286 282 278 271 257 257 258 255 253 252 243 228 215 207 208 206 204 201 197 189 189 188 178 180 178 180 186 180 193 207 186 179 178 177 171 178 178 174 173 168 164 145 276
223 233 243 256 287 239 296 280 260 260 246 256 253 249 249 244 239 229 210 208 209 209 206 197 196 192 189 186 169 155 159 153 170 196 202 216 203 176 174 183 182 181 190 191 195 195 190 189 192
233 223 224 237 262 272 291 286 272 265 267 261 251 242 242 237 231 225 215 209 208 213 201 197 194 192 185 181 181 177 183 188 193 195 193 190 188 181 185 188 187 187 196 202 201 203 209 206 207
193 118 194 224 241 266 233 257 274 252 266 261 244 239 239 233 224 221 216 216 214 204 194 189 188 187 183 181 189 190 195 193 180 178 180 176 175 185 183 185 184 191 199 205 204 192 198 213 220
145 123 116 159 222 253 230 234 271 238 245 262 251 239 237 232 222 220 212 207 204 189 180 177 179 182 180 178 186 195 196 190 178 182 183 179 175 174 179 187 191 202 204 204 204 200 204 216 220
189 179 199 213 223 243 171 234 257 261 251 255 255 254 255 231 213 208 202 199 196 184 178 175 175 180 179 178 188 198 204 199 191 193 197 186 180 187 196 191 197 202 208 202 198 204 218 224 224
195 214 210 229 242 256 198 240 258 276 275 265 256 259 265 245 220 211 206 201 194 186 181 175 176 181 178 181 191 197 201 203 203 199 194 194 198 202 189 189 195 199 201 199 198 208 223 231 233
175 206 250 150 37 269 247 262 281 259 251 244 240 238 238 233 218 216 204 192 187 181 183 181 178 179 180 184 187 191 193 197 197 190 192 195 197 187 179 185 195 201 200 203 202 213 223 233 241
284 162 169 198 224 249 258 246 249 238 227 215 214 221 232 219 200 206 196 189 191 185 179 176 181 183 183 185 188 187 192 196 198 192 190 192 194 186 179 179 191 199 204 208 211 220 226 234 247
170 183 199 192 237 240 260 252 226 236 232 221 224 223 223 215 205 202 197 191 191 181 178 177 183 184 182 187 188 188 191 190 191 198 201 201 198 193 198 198 200 206 211 216 219 229 232 236 244
226 214 196 206 216 230 259 268 113 235 252 236 236 236 235 229 219 205 195 191 188 186 185 189 188 188 189 186 183 188 189 185 190 202 206 202 204 203 209 210 210 215 218 219 221 230 236 240 245